Muncie, IN

2:02 PM EST on December 06, 2016 (GMT -0500)
Delaware County-Johnson

Weather History for KMIE - November, 2012

Change the Weather History Date:

Thursday, November 1, 2012

  Actual Average Record
Temperature  
Mean Temperature 42 °F 49 °F  
Max Temperature 51 °F 58 °F 80 °F (2016)
Min Temperature 32 °F 39 °F 25 °F (1962)
Degree Days  
Heating Degree Days 23 16  
Month to date heating degree days 23 16  
Since 1 July heating degree days 554 480  
Cooling Degree Days 0 0  
Month to date cooling degree days 0 0  
Year to date cooling degree days 1149 955  
Moisture  
Dew Point 28 °F    
Average Humidity 57    
Maximum Humidity 76    
Minimum Humidity 38    
Precipitation  
Precipitation 0.00 in 0.11 in 1.10 in (1979)
Month to date precipitation 0.00 0.11  
Year to date precipitation 29.65 33.90  
Sea Level Pressure  
Sea Level Pressure 29.83 in    
Wind  
Wind Speed 10 mph (West)    
Max Wind Speed 20 mph    
Max Gust Speed 25 mph    
Visibility 10 miles    
Events      
T = Trace of Precipitation, MM = Missing Value Source: NWS Daily Summary

Daily Weather History Graph

Daily Weather History Graph

Search for Another Location

Airport or City:

Trip Planner

Search our weather history database for the weather conditions in past years. The results will help you decide how hot, cold, wet, or windy it might be!

Date:

Astronomy

Nov. 01, 2012 Rise Set
Actual Time 8:11 AM EDT 6:38 PM EDT
Civil Twilight 7:43 AM EDT 7:06 PM EDT
Nautical Twilight 7:11 AM EDT 7:38 PM EDT
Astronomical Twilight 6:39 AM EDT 8:10 PM EDT
Moon 8:34 PM EDT (11/1) 10:43 AM EDT (11/1)
Length of Visible Light 11h 22m
Length of Day
10h 26m
Waning Gibbous, 93% of the Moon is Illuminated
Nov 1
Waning Gibbous
Nov 6
Last Quarter
Nov 13
New
Nov 20
First Quarter
Nov 28
Full

Hourly Weather History & Observations

Time (EDT) Temp. Windchill Dew Point Humidity Pressure Visibility Wind Dir Wind Speed Gust Speed Precip Events Conditions
12:53 AM 39.9 °F 34.5 °F 32.0 °F 73% 29.81 in 10.0 mi West 8.1 mph - N/A   Overcast
1:53 AM 41.0 °F 35.8 °F 32.0 °F 70% 29.81 in 10.0 mi West 8.1 mph - N/A   Overcast
2:53 AM 41.0 °F 34.3 °F 32.0 °F 70% 29.80 in 10.0 mi West 11.5 mph - N/A   Overcast
3:53 AM 41.0 °F 34.3 °F 33.1 °F 73% 29.81 in 10.0 mi West 11.5 mph - N/A   Overcast
4:53 AM 39.9 °F 33.4 °F 32.0 °F 73% 29.81 in 10.0 mi WNW 10.4 mph - N/A   Mostly Cloudy
6:53 AM 34.0 °F 28.0 °F 27.0 °F 75% 29.83 in 10.0 mi West 6.9 mph - N/A   Clear
7:53 AM 33.1 °F 26.9 °F 25.0 °F 72% 29.84 in 10.0 mi West 6.9 mph - N/A   Clear
8:53 AM 32.0 °F 24.2 °F 24.1 °F 73% 29.85 in 10.0 mi West 9.2 mph - N/A   Clear
9:53 AM 35.1 °F 27.4 °F 24.1 °F 64% 29.86 in 10.0 mi West 10.4 mph - N/A   Clear
10:53 AM 39.9 °F 33.9 °F 28.0 °F 63% 29.87 in 10.0 mi WNW 9.2 mph - N/A   Scattered Clouds
11:53 AM 43.0 °F 36.0 °F 30.9 °F 62% 29.87 in 10.0 mi WNW 13.8 mph - N/A   Partly Cloudy
12:53 PM 44.1 °F 37.7 °F 30.9 °F 60% 29.87 in 10.0 mi West 12.7 mph - N/A   Overcast
1:53 PM 46.9 °F - 28.9 °F 50% 29.84 in 10.0 mi WNW 12.7 mph 20.7 mph N/A   Mostly Cloudy
2:53 PM 48.9 °F - 25.0 °F 39% 29.82 in 10.0 mi West 17.3 mph 20.7 mph N/A   Clear
3:53 PM 51.1 °F - 27.0 °F 39% 29.81 in 10.0 mi WNW 18.4 mph 24.2 mph N/A   Clear
4:53 PM 48.9 °F - 27.0 °F 43% 29.81 in 10.0 mi West 15.0 mph 19.6 mph N/A   Partly Cloudy
5:53 PM 50.0 °F - 26.1 °F 39% 29.81 in 10.0 mi West 15.0 mph - N/A   Mostly Cloudy
6:53 PM 48.0 °F - 26.1 °F 42% 29.83 in 10.0 mi West 8.1 mph - N/A   Overcast
7:53 PM 48.0 °F - 27.0 °F 44% 29.84 in 10.0 mi West 8.1 mph - N/A   Overcast
8:53 PM 46.9 °F - 28.0 °F 48% 29.85 in 10.0 mi West 6.9 mph - N/A   Overcast
9:53 PM 46.0 °F 42.5 °F 28.0 °F 50% 29.85 in 10.0 mi WNW 6.9 mph - N/A   Mostly Cloudy
10:53 PM 43.0 °F 41.3 °F 30.0 °F 60% 29.86 in 10.0 mi West 3.5 mph - N/A   Overcast
11:53 PM 44.1 °F 41.5 °F 28.9 °F 55% 29.84 in 10.0 mi WSW 4.6 mph - N/A   Overcast